GFSSE_sfc_rhum_021.txt.gz
RH
91 92 92 91 90 89 89 89 88 87 86 83 81 79 77 75 76 76 73 70 66 61 54 58 59 59 58 60 63 64 66 70 73 73 76 70 68 68 72 76 78 70 74
86 85 92 90 88 87 88 89 88 86 84 81 80 78 78 76 74 74 71 68 65 55 56 56 54 54 55 58 63 64 66 74 77 75 72 70 67 69 71 75 80 75 78
84 83 83 88 87 87 88 88 86 84 80 77 76 77 75 72 68 72 72 68 64 57 56 56 57 58 61 64 67 68 70 74 76 76 70 74 68 67 68 76 76 73 73
83 79 81 89 88 89 88 87 83 79 78 77 75 73 72 68 65 69 74 71 66 59 58 59 61 63 66 70 75 76 76 75 76 71 60 61 61 69 69 66 67 71 74
77 78 83 88 87 88 89 86 84 82 80 77 74 70 66 64 68 69 74 70 66 60 61 62 63 66 71 79 79 78 76 75 68 58 68 75 74 65 70 70 67 66 72
80 83 85 84 83 88 89 87 86 84 82 78 73 70 64 66 69 72 75 71 64 63 63 64 66 70 79 79 79 78 77 78 63 61 74 74 70 61 63 67 68 67 73
91 91 84 87 84 86 88 88 86 85 83 78 75 73 72 69 69 74 78 74 68 67 67 69 71 77 78 78 79 80 77 73 53 64 76 76 72 61 60 64 67 68 67
94 92 92 93 94 91 90 89 87 86 84 79 78 76 75 77 78 78 78 78 76 76 77 77 78 77 77 77 78 80 81 76 56 59 70 78 74 61 60 63 73 76 71
91 94 96 94 94 92 90 90 88 87 84 81 80 79 79 79 79 79 79 79 78 78 77 78 78 75 75 76 76 82 85 80 60 62 58 82 72 62 60 62 66 73 76
95 97 95 98 89 90 83 88 87 85 81 79 78 78 78 78 78 79 78 77 75 73 72 75 71 72 75 74 76 81 82 70 58 70 83 86 72 64 67 69 70 72 76
95 93 90 96 92 91 86 81 82 83 80 78 76 76 80 74 73 74 79 76 73 72 73 73 71 73 77 72 78 79 78 52 55 71 88 77 70 65 70 72 74 75 75
92 97 94 90 91 88 64 83 85 75 77 73 69 72 69 74 75 66 76 78 74 77 73 70 70 79 69 58 57 71 55 49 53 72 87 75 65 62 66 68 69 68 69
92 92 87 88 87 75 68 75 73 73 79 78 74 74 74 75 76 79 79 80 72 77 67 67 60 56 51 55 59 56 54 49 58 73 79 73 63 57 60 62 63 64 65
86 79 83 80 79 67 71 72 72 78 83 95 88 79 86 91 88 86 82 82 77 76 69 63 63 53 52 50 52 54 52 50 55 72 77 70 66 52 54 56 59 61 62
81 78 78 80 64 65 70 75 74 81 84 81 82 82 87 83 87 84 84 80 72 69 59 58 60 55 55 48 49 50 49 48 48 55 82 72 70 59 55 58 58 56 55
78 83 81 75 67 71 74 75 82 86 86 87 92 90 88 91 87 84 75 68 66 66 65 62 58 61 56 51 49 49 46 47 44 46 67 78 75 69 60 56 52 51 49
74 73 80 70 78 78 77 82 90 93 92 93 92 88 87 84 80 78 74 76 70 65 62 58 62 62 62 53 53 51 48 49 46 44 46 67 84 75 66 52 45 46 44
61 65 66 59 82 83 90 91 95 94 89 86 84 81 75 71 72 72 76 69 64 66 67 68 69 66 67 64 60 52 59 48 48 41 41 46 80 67 70 61 49 46 45
59 63 64 74 86 89 92 94 92 89 84 82 84 74 62 59 60 71 72 65 60 67 72 66 69 72 71 65 47 47 53 58 49 43 44 41 64 73 68 69 66 53 44
63 72 67 82 87 93 94 95 95 87 82 82 76 66 57 56 55 68 69 70 68 68 70 66 67 64 70 65 45 47 59 57 56 58 51 39 48 52 55 52 52 54 51
70 66 81 86 91 90 94 96 92 82 79 71 62 57 58 58 58 64 66 67 67 69 70 69 67 65 66 70 65 62 57 55 49 54 54 54 51 47 43 44 47 46 50
78 88 89 85 87 82 79 80 78 75 72 65 64 62 58 60 56 59 64 66 66 66 68 68 68 70 73 70 66 74 71 62 59 53 57 51 52 51 46 38 42 44 49
94 94 90 85 80 81 81 69 67 64 66 66 67 64 60 57 53 53 56 58 63 70 72 71 71 71 73 69 67 68 77 79 70 58 47 51 50 53 55 52 45 42 44
95 94 88 83 86 84 71 59 52 60 66 73 72 69 56 44 41 40 50 56 59 65 62 75 64 75 76 78 76 61 67 70 69 70 55 52 51 44 51 56 54 47 46
82 79 89 83 71 63 62 68 63 63 67 64 58 47 41 46 43 44 50 52 58 69 69 71 77 80 84 86 84 78 69 66 60 63 70 61 54 51 51 58 57 59 53
71 66 55 55 62 61 61 66 63 61 49 47 46 48 45 49 54 51 46 57 63 66 72 82 79 80 88 86 84 78 68 67 64 65 70 68 64 58 53 54 59 60 59

GFSSE_sfc_rhum_024.txt.gz
RH
92 93 93 91 90 90 91 90 88 85 82 81 80 78 76 72 73 73 71 68 66 59 56 55 54 54 56 60 63 64 65 69 75 77 76 70 69 71 73 78 79 73 76
89 91 93 90 89 89 90 89 87 84 81 79 78 78 77 72 72 72 69 67 66 57 56 57 58 58 60 63 66 68 70 72 77 78 76 69 67 68 71 75 80 73 74
87 89 87 89 88 89 89 88 84 81 79 75 74 75 73 70 70 72 70 69 67 60 59 58 58 58 61 66 73 74 77 78 78 76 76 82 74 68 67 68 73 74 75
88 85 82 89 89 90 88 86 81 76 75 75 73 69 70 68 69 72 72 70 69 61 59 58 58 60 65 73 77 75 74 76 77 78 73 75 64 67 67 65 64 64 75
87 81 85 90 90 89 87 84 82 80 79 77 73 68 68 68 67 69 73 71 68 61 59 59 61 66 73 79 79 76 74 72 76 70 86 81 75 62 63 64 65 66 68
87 83 90 91 90 88 86 84 83 80 78 76 73 73 69 68 68 72 74 72 64 62 62 63 65 70 77 79 79 78 72 70 70 79 78 75 69 62 62 65 66 66 68
90 86 83 91 88 87 86 84 83 82 79 76 75 76 75 72 71 76 77 74 70 66 66 66 69 76 76 79 79 78 79 71 66 80 84 80 74 62 62 66 69 69 68
93 89 87 90 90 89 86 86 85 82 79 78 78 78 77 78 79 79 79 79 77 76 76 74 74 74 73 75 78 82 80 67 60 72 76 82 74 62 62 66 71 76 73
98 97 95 92 91 90 90 89 87 82 80 80 80 79 79 81 80 79 79 78 77 76 73 69 70 72 71 72 78 82 75 73 71 76 70 87 73 65 66 70 72 76 77
97 94 97 89 91 90 86 89 86 82 82 81 80 81 81 81 80 80 78 76 74 71 69 66 70 70 70 75 77 81 69 72 70 80 87 91 73 65 70 75 76 75 75
97 96 90 97 93 92 85 81 83 80 79 79 79 80 82 79 77 77 77 75 71 73 73 68 70 76 79 72 80 75 63 63 71 80 91 78 66 63 70 73 71 71 71
96 97 93 96 96 90 68 87 88 74 75 74 72 76 72 75 76 72 79 76 75 73 74 74 81 68 62 60 61 63 57 54 71 79 89 74 62 59 63 66 68 68 68
91 87 90 97 86 86 72 84 83 81 81 77 71 74 79 79 85 86 84 87 82 72 65 62 56 55 54 59 60 63 56 56 67 77 78 71 62 56 59 61 63 65 65
91 85 86 94 88 85 75 80 77 82 92 95 90 85 86 91 87 84 83 83 74 70 64 65 64 58 54 50 52 51 52 55 58 69 81 74 68 52 54 58 61 61 60
89 90 87 84 86 80 81 81 87 92 87 88 88 86 89 90 88 87 80 74 71 66 63 62 61 56 56 51 53 49 49 51 47 60 82 73 70 60 52 58 57 54 54
82 82 84 86 79 76 84 88 88 88 90 95 96 95 90 90 86 80 74 70 70 70 66 64 62 63 63 57 54 50 53 50 48 49 58 75 75 70 61 56 53 50 48
77 78 88 81 83 80 89 85 90 94 94 95 95 92 88 82 82 77 76 72 70 71 66 67 67 68 67 56 51 50 56 52 52 47 52 65 86 74 70 53 47 46 45
78 83 81 72 82 86 88 88 94 92 90 87 87 86 80 77 76 78 70 68 72 73 70 72 73 69 71 65 57 52 57 57 50 48 44 59 87 77 72 61 52 47 47
74 77 79 85 85 90 89 94 95 91 86 85 86 78 70 68 73 76 73 74 73 72 74 68 72 72 72 66 55 56 63 62 58 43 46 49 69 75 73 60 58 53 44
72 77 81 84 91 91 94 96 97 94 88 86 80 72 62 64 71 72 73 72 70 69 70 69 60 64 69 72 49 51 59 61 59 61 56 45 53 54 53 48 49 53 50
81 76 86 90 94 87 93 96 97 91 89 82 70 64 65 66 64 68 73 70 71 69 72 68 69 67 68 74 65 65 65 62 59 60 57 54 50 50 48 51 52 56 53
79 80 88 86 91 79 76 96 90 84 76 70 69 67 64 64 61 62 70 72 70 69 69 69 71 75 79 74 69 79 74 67 60 54 58 50 53 52 48 45 48 45 51
80 92 91 91 88 85 78 89 80 74 74 71 72 69 66 64 56 57 58 60 62 65 67 74 77 72 75 78 74 71 76 82 75 65 54 56 53 57 56 55 48 46 50
88 96 91 88 83 87 88 78 70 63 62 73 74 74 57 47 51 51 54 59 64 69 68 75 74 83 81 83 82 66 71 71 70 71 60 56 55 47 54 60 58 54 54
96 94 93 92 94 92 76 69 66 71 77 79 71 50 49 52 54 52 55 61 68 74 76 83 86 87 87 89 86 83 73 70 68 68 72 65 60 56 56 59 62 63 56
94 95 97 92 79 77 74 73 71 66 61 55 54 53 55 60 60 53 56 61 65 74 82 83 84 86 88 88 89 84 73 70 68 69 75 73 69 61 58 57 60 62 64

GFSSE_sfc_rhum_030.txt.gz
RH
96 94 90 89 89 88 86 85 84 84 82 80 76 73 72 70 72 73 70 68 67 65 59 59 62 64 68 68 66 73 77 81 80 76 72 65 66 67 73 76 78 73 76
90 91 90 89 88 86 85 84 83 80 78 77 75 74 72 72 74 71 70 69 68 64 60 61 64 71 73 74 72 73 79 84 82 78 73 65 63 62 62 68 75 72 75
90 89 89 90 88 85 84 82 81 79 76 73 72 73 72 72 73 73 72 69 68 65 60 61 66 68 74 79 80 79 80 83 82 78 74 77 61 59 60 62 66 68 71
86 87 89 90 88 85 84 82 79 75 75 74 72 72 72 72 72 75 73 70 68 66 59 58 58 63 69 79 83 84 82 80 80 79 80 74 57 61 62 63 63 64 66
87 88 89 91 88 86 84 81 78 77 76 75 73 70 69 70 70 72 74 70 69 66 58 58 60 65 74 79 78 82 81 79 79 77 82 77 72 61 66 68 68 69 69
92 91 94 91 88 85 83 81 81 79 78 76 74 72 71 71 68 75 74 71 69 66 60 61 64 70 79 81 78 79 77 78 80 86 84 80 75 64 68 72 73 73 72
95 93 90 92 86 84 84 83 82 81 80 79 77 75 75 75 75 78 77 75 73 70 68 67 72 74 75 80 76 80 81 76 81 84 84 84 77 65 68 73 75 75 75
98 96 89 86 88 87 84 84 84 83 83 82 80 78 79 81 81 80 80 79 77 75 75 77 79 77 72 78 76 77 75 73 71 81 84 84 74 66 67 71 74 73 74
96 98 98 92 90 89 90 88 87 86 86 85 84 84 84 84 83 80 79 78 76 75 76 76 79 81 74 77 79 81 79 76 82 85 79 88 69 67 68 69 70 71 71
96 97 96 97 93 95 86 86 87 88 89 88 86 85 84 84 82 80 79 77 75 76 76 75 77 82 76 78 81 82 77 72 81 88 90 84 68 65 66 66 66 68 71
94 95 94 95 95 95 89 83 83 85 86 85 84 84 87 87 84 76 78 75 74 76 78 78 76 75 76 76 74 69 70 74 80 88 92 76 64 64 64 65 65 65 66
95 95 97 96 94 94 80 83 82 80 84 84 85 83 82 85 82 78 79 82 80 78 76 74 70 67 62 62 63 62 66 68 76 80 83 77 60 61 64 64 65 64 63
92 93 96 96 94 97 85 87 87 83 84 82 80 78 81 86 88 88 87 78 73 65 60 56 56 56 57 57 60 62 58 59 70 80 78 76 66 54 60 63 63 62 60
89 88 89 90 92 92 88 87 85 81 82 89 83 80 91 92 86 85 83 76 72 73 68 67 65 63 60 55 57 59 58 58 58 65 68 74 68 58 54 60 60 59 59
81 79 88 95 98 93 89 88 89 93 95 92 91 93 91 90 88 82 77 74 73 70 68 67 65 61 60 55 58 56 58 56 56 59 65 64 73 64 50 59 56 57 57
76 79 84 94 97 92 92 90 97 97 97 97 97 94 86 89 84 78 77 77 73 70 71 70 69 66 63 56 58 60 60 54 54 62 67 73 84 76 61 59 54 52 52
77 77 90 95 96 93 92 94 98 97 96 97 97 94 87 81 77 76 77 77 75 72 71 72 71 67 63 55 58 63 62 57 54 59 78 90 84 77 70 57 52 48 49
86 91 93 86 95 95 94 96 98 97 97 98 97 94 87 77 77 76 78 78 76 74 73 72 68 69 68 67 64 68 63 58 54 57 60 81 82 67 67 63 54 50 43
87 93 96 96 96 96 96 97 96 94 95 97 96 92 81 76 70 76 78 78 74 74 74 64 72 69 69 71 60 67 67 63 59 44 53 57 63 60 55 56 56 57 50
95 95 94 96 96 95 97 97 96 94 95 90 84 79 80 74 74 77 78 78 74 72 70 67 68 76 78 75 50 62 68 66 64 60 55 45 51 55 56 58 59 56 48
96 96 95 96 97 93 96 96 97 96 96 87 78 73 79 75 72 76 80 78 76 73 73 70 73 74 79 77 69 71 70 70 64 61 57 55 51 51 55 55 56 55 51
94 94 96 95 96 87 81 95 93 95 93 84 77 77 75 74 74 74 78 77 74 73 73 77 75 81 84 82 76 78 77 68 66 59 58 53 57 54 52 50 53 54 55
93 95 94 94 94 86 84 94 91 90 81 79 79 79 76 75 73 69 67 67 67 69 72 80 80 76 79 83 80 74 76 76 77 69 60 59 60 59 58 56 52 53 55
92 93 92 92 92 89 92 87 86 85 83 86 80 81 66 63 62 60 65 71 74 75 77 82 79 84 82 82 82 70 74 74 76 78 65 62 62 53 59 60 58 58 58
92 94 94 94 94 90 92 90 92 94 94 92 82 63 63 65 62 62 68 69 75 81 77 75 82 85 87 87 85 85 82 77 74 73 71 64 61 60 60 62 61 61 60
95 96 98 97 95 94 92 95 95 92 92 82 80 67 75 68 68 62 64 70 72 76 77 80 87 85 87 88 88 90 82 74 72 75 76 73 70 64 59 62 63 64 68

GFSSE_sfc_rhum_033.txt.gz
RH
72 65 90 89 88 87 87 87 86 84 82 80 78 75 74 73 74 72 70 69 68 66 61 64 66 65 64 74 74 70 76 79 79 74 70 62 61 64 72 75 70 56 75
71 64 90 89 87 86 86 86 84 82 80 78 76 75 75 74 72 72 72 70 69 66 66 70 70 68 67 74 77 78 76 81 79 74 65 57 59 60 63 68 74 62 74
79 65 71 88 86 86 85 84 82 80 78 77 76 76 75 74 74 73 72 70 70 69 68 68 69 69 69 76 84 81 77 78 79 75 65 37 44 61 62 64 66 65 69
78 65 64 88 85 84 84 82 80 77 76 76 76 76 75 76 75 73 72 71 69 68 64 65 70 73 76 83 86 82 78 77 77 69 42 39 40 64 64 66 66 64 61
77 66 66 88 85 84 83 81 78 77 77 76 76 75 75 76 75 73 73 71 69 66 59 61 65 74 80 84 84 82 77 78 77 53 42 46 44 60 68 68 65 70 70
78 70 84 89 87 84 82 80 79 78 78 76 75 75 75 74 74 75 74 71 69 66 60 61 67 73 79 82 82 80 79 79 66 42 45 55 51 65 68 71 73 73 74
88 78 80 90 87 84 83 82 81 81 80 77 76 76 76 76 77 78 77 74 72 71 68 65 71 79 78 80 81 80 78 77 42 42 44 48 55 65 67 70 72 73 73
97 94 86 87 87 87 85 84 84 84 83 80 79 79 80 81 81 80 79 77 77 79 79 77 74 79 77 79 80 79 78 70 44 43 44 44 68 64 65 66 70 71 71
97 98 98 95 91 88 89 88 89 88 86 84 83 84 85 84 82 80 79 77 76 77 80 80 76 77 80 80 80 82 83 80 47 45 43 42 67 62 60 60 62 68 69
96 98 97 96 96 89 87 88 91 91 90 89 88 86 85 83 82 81 79 77 77 77 78 82 79 79 80 80 74 73 75 72 50 47 47 48 66 60 60 59 62 65 68
96 95 95 91 94 88 84 81 85 88 88 87 82 86 78 52 55 54 72 76 79 82 81 80 76 77 76 73 71 71 65 44 46 46 45 76 66 61 62 62 62 63 63
95 95 95 94 95 82 67 79 80 78 76 75 65 65 58 64 59 54 69 84 82 78 75 72 68 64 50 36 36 47 33 41 40 43 48 77 60 63 62 63 62 62 62
84 85 89 88 91 92 84 76 73 76 73 78 76 70 72 68 64 59 57 49 51 57 39 43 40 36 44 37 38 39 37 35 34 41 54 73 65 58 64 63 62 61 60
83 92 93 92 90 87 82 73 76 63 71 76 69 68 70 67 68 63 53 52 52 48 51 46 43 48 46 43 43 43 41 34 30 30 37 73 68 58 60 64 60 60 59
80 78 84 85 82 82 82 76 74 68 60 60 60 65 64 66 70 56 57 52 49 47 46 45 42 39 42 41 40 39 38 40 40 32 32 79 76 65 50 63 59 59 55
71 72 72 71 76 82 78 74 65 71 68 69 68 69 71 66 66 58 55 50 48 44 44 42 42 39 38 38 42 41 38 35 40 44 36 50 79 74 58 60 56 55 52
58 62 74 80 84 81 77 73 79 78 79 72 74 75 71 63 63 61 52 52 50 52 51 48 45 44 39 37 42 40 35 38 39 48 48 51 50 74 72 59 51 49 51
62 68 72 71 82 83 77 74 81 80 79 80 82 81 68 60 61 61 54 53 52 50 45 45 44 40 39 39 42 37 36 35 40 48 52 51 46 41 60 65 59 50 43
63 64 68 74 82 85 77 76 83 80 76 79 84 78 68 60 57 56 52 56 54 47 50 43 45 42 38 40 38 40 39 35 36 31 47 49 46 39 36 55 54 50 46
64 69 68 75 81 84 77 83 77 77 78 80 77 65 63 54 57 57 55 57 50 47 45 43 47 48 46 44 33 41 41 38 34 35 34 28 34 38 34 35 32 37 48
72 71 75 81 85 81 80 76 78 84 83 74 63 65 63 55 56 57 52 55 50 46 49 52 48 50 47 50 43 43 42 43 41 34 33 31 32 32 37 33 29 27 28
69 74 77 78 82 77 68 69 69 75 77 61 58 64 57 59 54 57 58 52 51 48 53 54 54 51 48 52 42 43 41 42 40 36 34 33 42 32 31 33 36 35 32
68 76 77 77 78 76 72 70 71 77 78 65 58 59 57 59 52 54 57 53 50 44 45 54 55 54 49 55 55 41 38 35 45 44 43 36 42 36 35 34 36 37 39
73 78 76 77 77 77 75 73 74 72 69 68 67 62 57 60 57 47 46 49 51 49 52 54 56 66 57 50 54 46 53 50 41 41 41 42 40 39 43 37 36 38 40
70 81 80 79 79 78 82 82 83 80 78 76 68 68 60 56 50 46 48 53 54 50 60 63 68 64 57 50 47 52 55 49 52 48 42 40 37 36 37 39 40 39 42
77 81 84 87 81 83 86 82 82 80 79 76 72 67 57 51 50 50 46 51 53 57 63 64 77 78 58 54 51 54 49 46 42 46 46 45 48 42 39 40 43 40 42

GFSSE_sfc_rhum_036.txt.gz
RH
50 50 90 89 89 90 90 89 88 86 84 81 79 77 76 76 75 73 71 72 71 69 63 64 70 73 64 65 70 75 76 76 73 69 67 61 61 65 70 74 65 50 75
48 48 90 89 89 89 88 87 86 83 81 78 77 76 76 74 74 73 73 72 72 67 66 66 67 70 64 68 72 73 72 76 74 70 66 59 61 62 65 68 73 58 74
53 47 61 88 88 87 86 85 83 80 78 77 78 76 75 74 75 74 74 74 74 71 67 67 67 69 67 72 78 76 73 74 73 66 58 29 40 64 64 65 68 66 69
56 49 49 90 87 86 84 83 81 78 78 78 76 76 76 76 75 75 76 76 75 74 69 66 69 71 73 80 82 78 75 72 73 65 29 30 35 65 65 67 68 64 64
63 52 51 89 88 86 84 82 80 79 78 78 77 77 76 75 75 76 76 73 71 71 68 69 73 77 81 85 83 80 76 74 70 41 30 35 37 57 67 68 64 70 70
70 57 82 89 87 85 83 81 80 79 79 77 78 78 76 76 75 77 76 72 69 68 64 69 73 78 83 82 83 78 77 72 62 28 32 44 44 63 65 70 73 71 72
75 71 69 89 87 84 82 81 81 80 80 79 78 78 77 77 78 78 77 75 73 71 69 69 73 79 81 82 79 77 75 67 27 26 30 37 50 62 62 65 69 71 71
83 76 78 85 86 85 84 83 83 82 81 80 80 79 79 81 82 81 81 81 80 76 75 80 79 79 80 77 75 77 74 70 31 28 30 37 63 58 58 61 66 67 68
91 94 96 92 86 86 91 89 89 85 84 84 84 84 85 84 80 78 78 78 79 79 76 78 80 81 76 76 77 82 80 71 31 32 28 33 62 56 55 58 62 65 66
98 98 96 93 90 82 82 92 92 91 90 89 89 87 84 82 81 80 79 78 80 82 79 79 83 81 76 74 74 73 74 64 30 29 31 42 62 56 56 58 62 64 64
98 98 94 93 88 82 72 88 85 90 89 88 82 83 71 36 37 43 75 84 84 86 82 78 77 78 77 73 69 68 58 28 27 27 31 74 61 59 59 60 62 62 63
97 98 96 90 86 85 73 76 74 64 57 58 51 46 38 47 47 40 68 83 82 81 79 72 68 62 50 29 28 43 26 29 26 27 37 74 62 61 60 61 61 62 63
92 94 92 93 94 86 80 80 64 58 66 65 70 60 57 53 57 48 50 42 44 54 34 37 36 29 35 30 30 32 29 26 23 22 51 72 67 63 63 62 60 61 60
84 87 86 88 87 86 85 63 65 58 60 63 62 64 62 50 50 48 41 42 42 36 40 37 36 41 38 36 35 35 34 27 23 20 45 76 68 59 64 62 60 60 58
72 76 87 91 86 84 80 57 59 59 53 51 50 42 39 42 52 45 45 38 38 37 37 37 36 34 36 35 33 32 30 29 27 20 22 76 75 64 53 63 60 58 54
64 71 73 67 65 60 53 60 53 53 48 49 47 47 51 44 54 48 46 41 38 36 35 34 34 32 31 32 34 31 28 24 28 31 23 37 76 74 56 61 60 57 52
64 66 68 65 56 54 54 48 44 46 47 42 47 62 56 53 58 52 42 42 40 40 41 39 36 34 31 27 29 27 24 29 27 30 28 28 37 76 74 58 52 49 49
55 57 56 55 63 67 67 55 44 48 47 44 54 58 58 51 53 51 45 43 40 40 37 35 34 32 28 25 28 24 26 26 30 30 30 30 28 25 64 64 56 50 44
45 49 48 55 57 63 63 54 59 55 62 50 67 60 60 51 49 46 43 45 45 38 39 36 34 30 27 25 23 27 29 26 29 22 33 35 37 32 30 58 54 52 48
44 50 51 56 61 68 59 58 46 56 61 61 60 55 55 46 49 49 46 50 41 37 38 34 36 31 28 27 18 26 30 29 27 28 28 22 28 32 29 32 30 33 45
49 53 53 57 62 69 57 49 48 57 59 59 57 57 57 49 49 50 44 47 40 38 39 41 35 33 32 34 33 32 32 36 36 28 28 25 27 27 30 26 25 22 28
47 52 55 54 60 61 50 46 47 55 58 53 51 56 55 52 46 46 47 43 41 40 45 42 36 34 33 35 37 30 31 31 33 33 28 29 36 27 26 28 30 31 29
46 50 50 50 53 58 53 46 49 57 66 60 53 52 50 51 44 43 47 44 46 40 39 39 39 42 38 39 43 30 27 29 29 30 39 32 36 32 30 30 32 31 32
48 49 48 48 50 54 57 50 56 54 63 68 62 49 51 55 49 42 44 48 45 37 37 37 38 44 44 42 39 31 38 33 24 29 33 36 36 35 36 34 30 33 34
44 48 52 50 51 53 59 61 63 62 60 62 57 55 59 60 54 45 48 49 47 37 39 44 49 48 43 44 33 37 39 35 38 36 32 24 26 26 29 32 34 34 33
44 50 56 56 53 57 69 82 83 73 68 71 60 58 59 56 58 54 49 50 42 38 45 52 55 53 48 39 33 35 33 34 31 32 33 32 32 31 30 31 34 34 32

GFSSE_sfc_rhum_039.txt.gz
RH
40 52 90 90 90 90 90 90 89 88 85 82 79 78 77 77 76 74 75 76 74 72 72 72 65 64 65 68 71 71 72 73 71 70 68 62 62 65 70 75 65 56 77
42 50 91 91 90 90 90 90 88 85 82 79 78 78 78 75 74 76 75 74 73 70 71 68 62 63 64 66 70 71 68 73 73 70 67 62 63 63 64 69 73 62 74
50 53 68 90 90 90 89 88 85 82 79 78 78 78 76 75 76 77 77 77 74 72 67 65 63 65 67 70 74 72 69 69 67 66 58 33 47 66 67 70 70 66 68
55 48 62 92 90 89 87 85 83 79 79 79 77 76 77 77 78 79 81 80 76 73 68 65 64 67 71 75 77 74 70 70 65 62 30 32 38 67 67 68 69 68 65
62 48 72 92 89 87 85 83 80 80 80 78 77 77 77 77 77 79 81 80 76 73 68 66 67 71 77 83 82 76 72 71 64 39 33 37 40 58 69 70 65 71 72
79 75 88 92 88 86 84 82 81 81 79 79 79 78 77 77 76 77 76 76 76 74 70 70 70 74 82 83 80 74 72 68 69 28 34 45 47 61 63 69 70 75 76
90 84 82 91 87 85 83 82 82 82 81 81 80 79 78 78 79 80 77 75 75 75 73 72 73 78 82 81 74 72 73 73 24 27 33 42 52 60 61 64 67 68 69
82 90 91 88 87 86 84 84 84 83 83 82 82 81 81 84 83 83 82 78 80 81 80 80 81 80 77 74 73 75 74 72 28 27 34 41 61 56 59 62 64 67 67
97 96 93 85 85 91 91 89 88 86 86 85 85 87 86 84 82 81 79 77 78 80 80 81 81 80 74 76 76 75 69 69 30 29 28 37 59 55 57 60 62 64 64
98 98 96 94 86 88 88 92 91 90 90 90 89 86 84 82 81 81 81 81 79 81 81 81 81 77 73 72 72 71 67 64 28 26 34 44 60 55 56 59 62 63 64
98 97 95 92 88 82 87 88 88 90 90 87 81 81 71 40 39 47 82 87 85 84 84 83 80 80 78 73 68 61 65 26 24 24 39 71 60 58 58 60 62 63 63
98 98 95 90 87 81 73 79 78 68 55 56 52 60 40 49 45 53 77 87 85 82 80 78 76 77 68 29 29 50 25 27 23 24 47 75 62 60 60 61 61 62 62
95 95 92 90 88 81 76 85 82 61 58 59 56 58 61 60 63 65 68 54 56 58 36 41 42 33 37 32 31 33 29 25 22 20 55 73 67 62 62 62 61 61 61
94 91 91 89 89 90 89 85 84 80 66 65 58 62 69 65 69 61 50 46 47 38 40 38 37 42 39 35 34 34 32 26 21 19 49 73 66 60 64 61 62 60 58
90 89 94 90 83 83 87 92 88 70 58 59 61 58 57 59 64 46 44 41 39 40 39 39 41 36 36 34 33 29 25 25 25 20 31 74 71 62 56 62 62 59 56
84 90 88 89 89 85 80 85 81 57 46 48 51 50 46 41 56 44 46 40 39 38 36 37 37 32 30 30 32 27 26 23 27 29 22 45 78 74 57 62 63 58 54
77 83 87 88 83 80 76 70 48 42 38 43 42 56 48 45 57 50 43 43 40 39 40 41 38 33 30 26 27 25 23 26 24 27 26 26 51 79 72 60 63 53 52
56 56 57 52 71 68 57 49 41 44 49 43 42 51 54 47 54 54 46 45 41 42 39 38 33 31 29 26 28 24 25 25 27 28 28 30 26 33 66 64 57 52 48
49 51 51 57 55 61 54 52 42 42 43 34 41 53 56 49 49 51 44 46 46 41 40 37 35 31 31 27 25 28 30 26 28 19 30 32 34 29 37 61 58 54 48
47 49 48 54 61 64 58 61 46 41 47 49 54 56 56 48 50 51 44 50 46 40 40 36 37 32 28 30 22 24 33 30 27 29 28 23 27 32 30 34 41 41 50
46 46 51 52 55 58 53 43 41 44 44 61 64 55 55 47 49 52 45 51 46 41 41 42 39 38 33 36 37 35 34 37 36 29 29 26 26 27 28 28 28 23 34
44 46 46 46 50 54 47 40 37 40 40 44 50 56 53 52 48 51 50 48 46 40 45 45 40 34 35 37 42 40 41 34 34 35 30 29 34 30 26 29 31 31 31
45 48 46 44 50 57 50 38 37 41 46 48 48 48 51 53 46 45 48 47 48 43 46 47 42 42 41 41 44 42 37 34 32 32 39 34 35 34 33 30 31 32 32
43 46 44 44 45 55 55 49 43 42 57 56 54 49 49 55 53 46 50 51 52 44 44 44 37 44 48 49 41 37 39 37 35 32 32 38 37 38 41 34 33 31 32
37 43 45 42 40 42 59 56 46 48 48 55 57 56 57 57 55 56 50 54 53 45 51 51 44 53 52 52 42 39 41 39 40 41 41 31 33 28 28 31 33 34 34
33 41 47 44 40 40 52 58 62 55 60 72 62 63 62 60 58 57 49 60 53 56 59 44 51 53 56 52 44 36 41 35 34 36 37 35 32 28 26 30 34 33 33

GFSSE_sfc_rhum_045.txt.gz
RH
92 85 91 90 90 91 92 90 88 85 83 82 80 79 80 82 82 83 78 75 74 71 65 63 60 62 63 64 66 73 75 75 74 73 71 65 65 68 73 75 76 70 76
91 87 89 91 90 91 91 89 86 83 82 81 79 79 82 82 82 84 79 74 72 69 62 59 58 61 65 68 73 77 76 74 74 74 70 65 66 68 68 70 74 65 69
87 91 85 91 90 90 89 87 84 83 82 80 79 81 82 81 80 82 80 74 72 68 61 56 57 60 64 68 77 76 75 71 71 71 71 70 63 66 69 70 72 67 67
72 69 96 88 90 90 88 86 83 82 80 78 79 81 81 81 80 82 78 74 73 69 60 56 57 64 70 75 77 76 74 71 70 68 61 62 60 66 69 72 71 69 67
83 78 86 88 91 89 87 85 83 83 80 79 81 81 81 81 81 81 79 75 73 68 60 57 61 67 73 76 76 74 77 71 70 64 67 70 65 63 70 72 72 72 73
92 87 91 89 91 88 86 84 84 82 81 82 82 82 82 82 81 82 80 75 73 68 61 62 65 69 76 75 74 73 69 69 67 65 69 63 62 62 64 66 71 73 74
91 86 94 96 90 86 85 85 85 84 84 84 83 84 84 84 83 83 81 77 74 72 67 67 69 74 75 73 72 74 70 68 57 64 70 70 62 62 63 64 67 69 68
94 94 96 97 94 92 92 90 86 87 86 85 85 84 85 86 86 85 84 80 79 79 80 78 78 76 73 71 73 73 78 65 56 60 65 70 65 61 63 64 65 66 66
97 98 98 96 94 93 94 92 90 88 88 88 88 87 87 88 87 86 86 84 84 84 82 80 79 75 69 69 68 71 75 69 58 59 56 68 62 59 60 62 63 64 65
97 98 97 98 99 96 94 93 92 92 92 90 89 88 87 86 87 87 86 84 83 82 81 79 77 71 65 62 62 67 70 68 61 66 73 65 62 59 60 62 62 63 63
96 96 95 98 97 97 90 90 90 90 88 86 84 84 80 74 76 79 86 85 85 85 82 79 75 71 67 64 62 65 61 63 69 78 86 73 63 60 60 62 62 63 63
98 99 97 96 94 93 88 95 91 83 76 75 71 69 66 78 79 81 85 87 86 84 81 80 76 72 60 54 56 59 49 67 78 88 92 76 64 60 60 62 63 64 64
98 98 95 95 94 93 92 81 88 92 81 73 75 76 76 87 84 83 82 83 85 80 72 74 69 58 59 62 54 49 44 55 75 83 86 79 67 60 63 63 62 64 64
98 97 94 92 93 94 95 91 92 91 78 79 77 72 76 80 78 79 74 74 69 68 60 64 68 65 55 50 50 44 39 47 73 83 89 79 75 64 62 64 63 64 62
97 96 96 94 94 94 91 92 94 92 86 89 78 73 76 70 73 78 78 72 74 73 65 72 62 55 54 46 43 38 41 42 56 64 81 75 74 67 63 64 64 62 65
93 95 93 93 92 87 87 84 91 90 88 93 79 74 73 78 75 77 78 73 74 72 71 64 63 59 58 49 40 38 39 43 45 63 65 81 74 72 67 62 64 59 64
93 91 94 93 91 90 89 87 86 81 70 54 54 61 68 71 79 78 76 81 72 69 68 66 63 58 55 47 41 40 39 42 41 43 64 79 89 80 75 75 68 61 63
86 88 90 88 90 90 87 89 89 90 87 58 50 71 66 67 79 82 81 77 70 70 65 64 60 58 59 52 50 46 47 44 38 37 61 75 79 76 82 80 74 65 59
83 83 85 85 86 82 87 86 75 72 75 52 54 63 78 66 76 78 89 89 71 69 72 66 69 63 56 55 47 52 49 50 42 35 46 57 75 77 79 74 71 67 59
82 85 79 75 74 73 70 63 57 63 53 53 68 75 82 76 74 83 91 87 72 72 76 73 63 60 58 54 37 41 56 55 52 52 47 44 58 74 76 75 80 76 69
80 81 81 80 78 67 71 71 62 69 65 65 75 79 71 76 80 88 92 78 72 75 72 68 65 53 53 63 62 66 67 64 53 54 56 50 48 49 72 76 80 74 73
72 73 77 72 72 70 67 64 66 65 66 61 78 83 82 81 85 90 92 88 81 80 77 75 65 66 60 67 68 76 77 66 66 57 63 55 54 50 46 49 53 62 63
66 64 70 68 66 69 63 66 70 74 74 76 78 87 79 82 82 84 88 86 89 83 83 74 73 65 66 75 67 70 74 74 74 72 66 65 57 62 56 51 50 48 57
65 59 58 61 61 62 66 68 65 65 62 66 78 79 84 82 83 82 82 86 92 87 78 74 69 67 72 73 74 63 70 62 63 60 69 67 65 58 61 62 58 52 49
60 62 61 61 56 60 66 69 76 62 65 74 78 87 88 90 86 89 87 88 86 87 81 78 78 77 75 74 69 73 69 62 68 65 72 64 73 68 66 68 66 65 54
58 58 60 62 61 61 68 73 80 81 68 87 90 87 94 92 95 95 85 86 87 87 85 84 75 76 79 79 72 72 67 67 66 70 78 73 72 64 67 69 75 69 65

GFSSE_sfc_rhum_048.txt.gz
RH
89 90 92 92 91 90 88 88 86 83 82 80 83 83 84 81 79 80 78 76 73 68 63 64 68 66 66 66 67 72 76 76 76 74 71 66 68 72 72 71 75 71 74
92 90 94 93 91 88 88 88 85 82 81 81 83 84 85 81 79 79 76 74 70 66 62 65 66 67 68 70 76 77 79 80 78 74 70 66 66 66 68 70 73 70 78
94 91 86 92 90 89 87 85 83 82 80 83 83 84 85 81 79 77 76 73 68 65 63 63 65 66 69 73 77 76 75 77 78 77 71 67 64 66 68 67 68 68 70
81 85 88 90 91 90 88 84 83 80 80 84 83 84 85 83 78 77 76 72 68 64 61 63 66 66 67 74 74 75 75 76 76 72 70 68 61 68 66 66 67 66 70
82 85 88 88 95 93 87 85 82 80 82 84 82 83 84 82 79 78 76 72 68 65 61 65 64 65 71 78 77 76 77 77 75 70 79 75 67 60 66 74 73 72 70
84 77 81 84 90 92 87 85 82 82 84 83 82 82 84 82 79 79 76 73 69 65 60 62 62 68 74 77 77 78 77 76 73 80 78 66 65 62 67 72 72 72 72
94 86 87 87 81 93 89 85 84 85 85 84 83 83 83 83 80 80 77 74 72 69 64 63 66 74 73 76 77 76 75 74 68 79 78 74 65 63 64 64 63 64 62
96 97 94 94 95 96 90 85 87 88 87 87 86 85 84 84 83 81 79 78 79 80 77 74 75 73 72 73 75 75 75 70 65 73 75 75 65 62 63 65 65 65 64
98 98 98 94 95 97 95 88 91 89 89 90 90 89 89 89 87 84 84 83 82 81 78 75 74 71 70 70 77 79 75 73 72 68 63 72 64 63 63 64 64 65 65
98 98 98 99 98 97 96 88 91 94 92 91 91 91 91 91 89 87 85 84 82 79 77 72 72 72 73 71 76 77 76 75 74 78 79 69 63 60 60 62 62 63 64
98 97 96 96 97 98 97 88 80 91 90 89 88 88 89 90 89 83 85 85 83 81 78 73 73 72 68 72 72 75 73 77 81 85 86 73 63 61 61 62 62 63 63
98 99 97 95 94 93 94 93 91 83 76 77 75 74 79 84 86 84 86 85 83 82 78 73 71 68 64 59 59 71 80 86 90 89 91 75 64 61 61 61 64 63 64
97 98 97 95 93 91 92 94 96 92 80 75 70 78 79 87 86 83 82 81 84 81 76 71 61 60 56 56 49 57 71 82 93 94 86 77 65 60 62 62 64 64 62
98 98 96 94 93 92 88 79 93 88 74 78 75 82 79 79 76 80 85 83 78 74 73 68 70 62 58 53 45 46 60 78 92 93 91 80 73 62 64 62 64 64 62
98 98 97 92 92 91 84 91 92 87 88 87 74 78 77 74 77 86 83 77 69 70 68 71 69 60 53 45 41 43 48 66 71 78 88 80 78 70 62 63 64 66 63
96 98 97 94 93 86 81 89 90 89 93 88 74 76 74 76 78 74 77 73 72 75 69 69 64 60 56 43 41 41 48 54 57 63 73 80 74 75 70 63 64 66 66
95 96 96 95 91 91 90 89 88 82 71 73 78 78 78 74 78 78 82 86 78 77 72 70 67 64 58 45 41 43 45 47 56 61 68 83 88 81 72 75 69 62 67
91 94 94 91 92 91 91 92 89 87 80 56 62 78 78 74 84 88 89 85 80 79 76 73 68 62 61 53 50 48 50 45 42 55 70 79 82 82 88 81 78 68 67
84 91 97 95 91 89 89 89 78 75 70 57 52 62 73 69 82 87 91 90 79 72 76 67 68 65 63 59 51 54 54 51 44 45 66 75 81 83 90 82 78 75 71
81 83 88 92 93 88 77 75 72 75 68 62 55 64 66 76 77 89 93 91 79 75 76 74 70 69 63 60 40 47 59 59 54 58 63 59 80 79 81 81 83 78 71
89 81 83 85 81 75 70 71 69 70 67 62 61 77 78 83 83 90 95 93 81 75 75 76 70 58 62 65 64 70 74 73 60 58 58 60 68 80 82 81 85 83 84
91 90 85 82 79 68 62 58 60 63 63 58 57 73 79 82 82 88 93 93 84 86 80 78 68 68 59 70 65 79 75 70 68 61 64 59 60 65 75 76 79 76 79
88 90 84 80 73 71 66 63 66 70 64 61 56 71 84 83 75 87 93 92 89 81 83 92 74 64 64 74 67 68 77 73 78 73 70 68 62 67 62 64 66 63 71
81 79 77 75 72 71 70 66 66 68 68 62 59 65 79 84 87 87 89 90 90 93 91 82 70 72 71 70 71 64 64 61 59 61 66 74 70 61 65 67 61 58 61
71 73 75 71 68 66 69 68 70 77 75 76 81 84 86 93 92 92 92 94 93 92 94 86 83 80 81 78 73 77 70 65 66 64 67 68 74 73 71 69 71 68 58
65 64 69 72 67 65 68 73 81 82 74 85 84 84 85 87 92 93 91 93 92 93 94 89 85 84 82 81 75 78 78 75 72 73 71 67 63 66 68 74 75 75 73

GFSSE_sfc_rhum_051.txt.gz
RH
94 94 93 92 90 89 88 87 85 84 82 82 82 81 82 81 80 79 75 72 72 71 66 66 66 64 64 68 72 72 73 76 75 72 71 72 71 67 74 78 78 74 76
91 93 93 91 89 88 87 86 84 83 83 83 82 81 82 81 80 78 74 73 73 71 67 68 68 68 69 72 73 73 73 77 77 74 69 64 66 68 70 74 78 75 78
93 93 90 92 90 87 85 85 84 83 83 84 82 81 82 80 78 75 73 72 74 72 68 69 70 71 73 76 77 78 76 77 78 76 73 60 57 64 64 68 68 64 68
92 88 90 90 89 88 87 84 83 83 83 84 82 80 80 79 77 73 72 73 74 72 67 66 66 68 72 77 79 78 75 75 75 75 74 57 57 71 69 70 64 66 67
84 90 88 89 89 84 88 86 82 83 83 84 83 80 79 78 76 73 71 72 72 71 65 64 62 67 78 80 80 78 76 76 75 74 80 75 68 64 72 71 70 64 63
85 88 93 90 91 87 85 87 83 85 84 86 84 80 79 78 76 74 71 72 73 70 63 61 68 74 81 82 81 78 76 76 77 85 83 68 68 67 66 69 66 63 64
91 91 92 90 88 88 84 86 85 86 85 86 85 80 80 79 78 76 73 72 72 69 64 64 76 81 82 80 79 77 77 74 77 85 83 78 66 62 62 63 63 64 64
95 89 86 86 85 87 89 89 89 87 85 85 85 81 81 80 80 78 78 79 78 75 73 72 77 79 79 78 78 79 78 74 74 82 80 76 66 63 64 65 65 65 65
98 96 92 93 87 92 96 90 83 87 84 86 84 84 84 84 82 82 81 78 74 74 71 71 73 75 78 77 77 79 79 75 80 76 68 76 64 63 64 64 64 64 64
99 98 98 98 96 98 95 91 81 89 85 85 88 91 89 87 85 83 80 77 74 74 74 72 74 78 80 81 78 79 80 76 83 83 83 71 64 62 62 63 63 63 62
99 98 98 97 96 97 96 93 82 92 94 94 95 94 91 88 86 84 82 79 77 77 76 73 73 76 81 80 80 80 75 84 87 88 89 72 64 61 61 62 63 62 62
98 98 97 96 95 94 92 94 90 86 91 92 89 92 92 94 88 82 82 81 79 77 76 75 72 68 61 71 78 76 86 88 91 91 93 74 64 60 60 63 65 65 61
98 98 98 97 93 92 92 91 94 95 98 96 91 86 89 91 88 87 80 82 83 78 72 64 66 58 52 66 74 83 85 93 96 94 85 76 64 62 64 67 68 66 65
98 98 97 94 92 92 81 84 91 92 91 94 90 84 88 87 88 93 87 88 86 80 73 73 72 64 55 52 64 75 85 93 98 98 91 77 72 62 65 68 69 67 65
98 98 97 93 92 84 80 80 86 90 80 86 79 79 76 77 79 86 85 82 80 77 71 76 67 61 53 48 51 64 73 85 88 93 96 81 77 68 61 67 67 65 63
97 99 97 96 92 87 78 78 91 88 87 88 73 73 74 72 78 75 81 80 78 72 76 72 66 61 51 45 48 53 64 66 70 78 84 86 78 77 70 65 66 66 63
96 96 98 94 93 88 88 93 88 91 79 79 75 74 80 77 78 76 81 86 80 75 75 72 68 68 57 46 46 52 57 60 60 61 71 80 82 74 75 74 69 68 66
93 94 94 95 94 95 94 94 93 91 84 72 75 78 73 74 84 90 83 84 81 82 78 76 76 74 64 52 52 52 54 53 58 64 70 82 84 82 82 76 79 72 70
88 93 97 97 93 94 94 94 85 72 71 68 76 74 78 73 82 84 91 92 85 85 84 76 77 70 66 59 53 55 58 54 50 56 71 77 81 87 94 86 83 79 76
86 89 93 96 94 92 84 89 90 93 64 58 61 79 78 77 86 91 94 94 87 85 87 80 74 73 67 63 42 50 60 61 57 62 71 72 82 81 91 92 93 90 80
85 87 93 96 93 89 87 88 93 91 79 60 59 70 72 76 85 92 95 93 85 79 78 75 75 70 70 68 65 70 73 70 65 60 67 74 74 80 88 89 91 86 86
90 86 86 87 82 80 84 75 79 83 81 58 60 67 74 80 82 91 94 94 87 85 84 82 72 70 65 71 64 77 72 70 72 65 66 63 68 83 84 83 86 83 84
93 97 82 84 76 71 65 62 66 77 74 71 62 68 71 83 82 88 93 94 94 89 85 90 80 67 64 72 72 68 76 76 71 69 66 65 63 74 84 84 81 80 80
96 96 89 85 81 75 70 65 69 64 67 65 68 65 70 81 88 83 90 93 95 93 90 88 89 81 75 72 77 70 63 62 62 63 60 66 70 65 68 65 68 73 72
90 94 88 83 80 75 79 76 79 79 79 79 76 77 82 82 91 86 90 93 94 94 90 92 92 90 88 84 76 85 73 71 80 72 68 60 66 74 64 61 65 71 61
88 90 89 84 80 74 77 80 82 78 78 84 90 85 82 82 87 92 92 94 94 94 95 92 91 90 85 84 75 80 83 84 85 72 71 67 63 60 63 69 71 69 73

GFSSE_sfc_rhum_057.txt.gz
RH
81 69 88 83 88 90 89 88 87 86 86 85 84 84 84 83 84 82 80 78 77 74 67 68 69 68 69 73 74 75 79 81 80 76 77 74 72 75 76 77 72 61 78
73 72 90 88 88 89 89 89 87 86 86 84 83 84 84 82 82 80 78 77 74 71 66 67 67 66 67 71 74 77 77 77 75 77 76 71 68 70 73 74 77 68 75
72 68 72 91 86 88 88 88 87 85 84 83 84 85 82 80 78 77 76 74 73 70 65 65 65 67 71 72 78 78 75 74 74 72 67 46 52 66 67 68 71 69 70
67 64 72 91 88 88 87 86 86 84 83 84 84 83 80 79 79 78 76 74 72 70 64 64 66 69 74 78 81 79 76 75 75 69 45 42 49 68 68 62 65 68 66
78 71 71 91 88 88 87 86 84 84 84 84 83 81 79 80 79 78 77 76 72 71 68 66 67 73 79 83 81 78 77 78 74 56 48 56 49 57 62 66 66 67 66
93 85 85 91 89 88 87 87 85 85 85 84 82 80 80 80 79 79 78 75 75 72 68 67 71 77 83 83 80 79 80 77 64 44 50 55 49 62 64 64 64 64 64
95 89 82 91 88 86 86 87 85 86 85 83 81 79 80 80 80 80 78 76 75 76 76 73 74 80 82 81 78 78 78 74 48 45 44 47 54 63 64 64 64 64 64
95 96 85 85 87 84 84 88 87 87 85 83 81 79 80 80 80 79 77 74 74 78 81 80 80 81 80 79 78 80 80 70 49 46 45 47 63 63 63 63 63 64 64
93 97 95 96 86 89 93 89 89 87 85 83 80 79 80 81 81 79 76 78 81 80 84 81 80 80 79 79 80 82 82 73 48 47 44 46 64 62 62 63 63 63 63
95 94 93 98 98 97 91 91 91 88 86 84 82 81 83 83 82 80 79 83 86 85 83 80 80 80 80 81 82 82 83 75 49 47 45 49 64 62 62 63 63 63 63
98 96 98 98 99 99 97 94 88 94 87 86 85 87 81 68 65 61 68 82 85 84 81 80 81 82 82 82 82 82 73 48 49 47 45 69 64 62 63 63 64 64 63
99 98 98 99 98 98 98 95 96 90 81 85 80 78 70 72 61 55 68 81 84 84 82 82 83 83 67 51 58 68 48 53 49 49 48 72 64 63 62 63 63 63 64
92 92 94 97 96 92 93 94 96 96 94 86 85 76 73 65 69 66 60 56 65 74 60 67 66 50 57 52 50 51 55 54 50 48 59 73 67 65 62 62 61 60 60
94 93 95 92 88 84 76 81 95 95 96 90 88 79 72 69 71 66 57 53 55 54 62 63 57 66 61 56 56 59 57 52 51 50 58 76 71 64 66 64 63 60 58
98 96 95 88 85 81 78 77 95 97 96 95 88 77 70 70 70 60 58 50 46 49 52 58 57 56 58 57 57 58 59 60 60 52 50 79 75 70 66 66 65 63 61
96 97 95 90 88 81 76 78 89 96 97 96 85 82 73 72 72 58 55 51 52 46 44 48 54 53 53 55 61 59 59 59 61 61 52 57 78 75 72 66 66 66 65
94 96 96 96 86 85 74 83 79 89 93 95 83 77 72 68 74 65 53 56 53 50 48 48 50 50 48 48 54 55 57 62 59 62 58 53 58 79 78 76 70 69 69
92 96 95 94 92 91 84 87 82 81 85 89 82 79 69 61 70 70 56 54 54 52 46 43 39 38 39 39 45 45 47 48 51 54 54 55 54 51 71 80 79 76 70
81 94 97 95 94 85 84 90 84 81 74 76 83 81 76 66 68 59 57 65 61 55 53 47 46 43 43 40 38 41 43 42 46 38 46 51 55 55 51 75 85 83 78
80 84 94 96 92 88 91 94 96 92 79 75 79 68 69 60 61 69 69 67 58 58 58 54 56 53 45 40 28 40 47 45 45 46 46 44 45 51 50 57 59 64 85
81 81 89 97 95 95 95 96 96 96 90 78 65 69 73 62 64 70 73 71 63 62 67 64 58 60 54 50 42 44 42 47 48 39 40 43 49 51 54 52 52 51 58
80 80 83 96 96 93 91 90 90 88 94 82 70 69 68 66 61 70 72 77 73 70 76 72 65 64 53 52 46 46 48 44 43 44 41 45 55 57 60 56 56 59 53
81 83 83 90 91 90 89 94 95 94 93 90 80 73 68 74 71 68 72 80 84 82 75 84 74 66 60 57 54 48 54 55 48 50 54 47 55 56 66 65 59 76 70
77 76 79 80 88 88 88 87 92 82 84 74 80 71 72 76 77 75 82 88 92 91 83 84 75 73 68 64 61 55 59 50 49 54 62 52 51 61 54 52 49 56 68
71 72 76 79 84 82 82 78 84 82 85 75 78 78 67 68 75 74 79 79 88 89 83 81 80 79 76 70 63 67 64 74 76 61 64 58 52 60 43 46 52 59 59
69 74 79 78 76 76 79 77 81 84 83 86 86 83 80 79 82 85 81 86 80 81 81 81 80 78 76 73 68 75 79 82 74 68 71 63 51 54 44 50 54 56 68

GFSSE_sfc_rhum_063.txt.gz
RH
33 62 92 91 91 89 90 90 90 90 89 85 83 83 85 84 84 83 82 80 78 77 74 76 75 75 74 75 77 81 82 81 80 79 78 75 74 74 75 77 73 64 81
41 54 92 91 92 90 91 90 90 90 87 86 84 83 84 84 83 82 82 80 79 77 74 75 75 74 76 78 82 84 83 82 82 80 78 74 74 76 77 79 78 69 77
47 53 61 88 90 90 89 89 89 88 87 84 84 83 85 84 83 83 80 79 78 75 71 73 74 74 75 79 82 81 78 78 79 73 70 56 60 73 75 76 76 74 75
46 50 51 89 89 88 89 88 88 86 85 84 85 85 85 84 83 80 80 80 77 74 68 71 72 73 75 79 78 77 77 76 76 71 39 44 53 71 72 73 71 71 72
54 50 54 87 89 87 87 89 88 86 85 85 85 85 85 84 81 79 79 78 75 72 65 67 73 76 79 82 79 77 74 70 69 52 33 42 52 62 67 68 67 67 69
54 51 81 89 89 88 88 88 83 86 86 86 86 85 84 82 80 79 78 76 74 71 67 67 75 78 82 80 77 74 71 73 60 31 37 49 50 65 67 67 66 66 66
56 63 74 88 89 90 85 83 82 86 87 86 85 84 82 80 79 78 76 74 73 73 73 75 78 79 82 77 75 76 76 72 29 32 37 45 55 64 65 65 66 66 66
61 75 70 82 85 85 88 79 76 87 88 86 85 83 82 80 79 78 77 76 75 77 79 82 82 82 81 78 77 73 72 72 32 34 38 45 64 63 64 65 65 66 65
66 81 78 78 90 95 96 97 92 91 87 86 85 83 83 82 80 80 78 79 80 82 84 84 83 82 80 78 78 75 72 70 32 34 37 45 64 63 63 64 65 65 65
74 89 84 84 93 88 94 95 97 96 89 87 86 85 86 84 84 83 82 82 84 85 85 83 83 83 80 80 79 75 70 64 31 33 37 49 65 62 63 64 64 64 64
74 77 82 83 84 87 87 96 96 93 93 87 87 90 85 56 67 69 73 85 84 85 84 84 83 84 84 82 77 74 76 29 31 33 42 71 64 62 63 63 64 64 64
80 80 86 86 88 83 86 88 94 96 93 85 72 66 48 61 58 52 76 86 85 85 85 86 86 85 69 42 44 66 38 33 32 38 46 72 64 62 63 64 64 64 64
71 90 84 83 78 84 91 93 96 100 96 87 79 63 56 66 63 68 76 69 70 71 55 60 62 42 38 35 40 38 38 36 34 39 58 73 64 62 62 64 63 63 63
69 90 70 68 69 76 90 98 98 98 99 95 90 77 81 75 66 60 70 60 57 50 55 49 44 41 38 36 36 43 40 34 34 41 59 77 70 65 64 63 63 62 62
71 88 80 72 74 71 81 85 96 96 98 95 94 87 79 76 61 59 67 61 51 49 51 46 41 37 37 36 38 40 38 37 39 40 50 78 75 66 61 61 63 64 63
68 74 76 75 73 75 81 84 89 96 93 94 92 94 89 67 69 63 69 58 50 46 43 41 38 38 35 35 39 39 39 39 38 43 45 58 80 76 69 62 62 63 63
66 75 77 83 84 84 82 89 96 98 96 93 91 92 85 68 69 58 51 50 46 42 45 39 40 38 33 32 38 38 38 41 39 40 42 46 60 82 80 73 68 66 66
63 81 83 80 86 80 77 83 89 99 96 94 94 92 70 61 62 60 48 45 41 43 40 37 37 35 33 33 37 36 36 38 42 42 38 41 45 46 77 82 77 74 71
60 62 83 85 82 82 77 83 89 97 95 94 94 87 63 56 58 58 48 45 44 43 44 39 40 39 37 33 33 34 35 35 40 36 39 42 46 43 47 81 84 82 78
57 71 82 87 83 84 86 91 88 95 95 92 93 75 62 57 57 60 51 54 44 46 51 44 43 37 36 31 24 30 35 33 35 36 38 37 39 44 42 53 65 67 86
54 68 85 90 90 89 92 88 93 95 96 95 91 71 59 53 50 53 52 61 59 53 52 56 42 44 36 35 29 31 34 36 38 34 34 34 38 41 44 40 48 47 63
49 67 86 93 91 90 84 82 76 85 93 89 92 87 62 55 49 52 53 58 58 50 56 56 58 47 40 38 33 36 43 40 38 39 35 38 46 35 37 42 44 46 44
48 59 66 88 91 92 87 85 85 91 91 93 95 93 77 69 47 53 61 60 61 57 65 64 60 56 49 45 48 46 47 44 45 41 49 40 46 44 42 39 42 43 44
47 54 58 68 86 84 83 81 84 73 82 71 78 87 82 78 58 56 71 75 65 59 64 66 56 60 60 58 54 49 54 55 67 63 43 48 46 54 62 66 52 43 44
44 54 54 66 71 78 80 80 79 74 70 70 69 76 72 69 67 69 69 74 79 66 67 75 71 69 61 76 68 59 59 56 60 67 69 50 48 45 50 64 59 46 42
40 49 54 61 66 76 84 84 80 77 71 81 79 79 68 64 66 71 71 74 79 80 75 73 73 74 74 67 76 62 64 57 55 57 62 66 71 71 80 83 84 65 46

GFSSE_sfc_rhum_069.txt.gz
RH
85 92 93 91 91 93 93 94 93 89 88 89 88 87 86 85 85 84 82 81 78 76 74 76 77 75 77 80 82 84 84 83 82 82 80 78 75 78 80 83 82 77 82
84 88 95 92 91 91 92 94 93 88 88 89 88 87 86 85 84 83 82 80 78 76 74 74 74 73 75 81 85 85 85 85 84 82 80 77 76 78 79 81 83 80 82
80 90 88 94 90 90 91 92 92 87 87 88 88 87 85 84 84 82 82 84 82 79 74 68 70 73 80 85 84 83 83 83 83 81 80 74 74 78 79 80 81 80 79
76 82 91 95 92 91 92 92 92 87 86 88 88 86 85 85 86 86 85 84 82 79 76 73 73 74 82 83 83 82 80 79 78 77 71 70 70 77 78 76 75 74 73
65 73 82 94 95 92 92 91 91 88 87 88 87 86 85 86 86 86 85 82 81 78 74 72 74 78 83 84 85 81 78 77 77 69 67 72 72 74 74 74 72 72 73
65 66 89 92 95 94 92 91 90 90 88 89 87 85 85 86 85 84 84 81 79 78 74 74 77 81 83 82 82 79 76 75 72 71 67 69 65 71 70 70 69 68 68
77 90 88 92 94 92 91 90 87 90 90 89 87 85 86 85 85 84 82 80 80 78 76 78 80 80 79 79 79 76 76 70 63 71 72 67 68 70 67 67 66 67 66
90 92 88 88 91 88 86 86 88 83 87 84 84 85 84 85 84 83 80 80 81 81 81 83 80 79 81 79 77 74 71 68 64 71 73 59 69 66 67 68 68 68 68
90 90 92 93 95 93 94 94 95 94 93 96 82 85 88 86 84 82 81 81 85 85 85 84 81 82 79 78 72 75 71 71 65 68 65 60 66 66 66 67 67 67 67
94 93 94 98 96 97 96 93 94 95 92 93 95 88 90 85 84 84 85 85 85 86 84 82 83 80 79 74 70 75 72 71 64 71 76 65 67 65 66 67 67 67 67
94 96 95 98 97 98 96 94 91 90 91 90 90 93 97 78 82 83 85 87 87 86 85 85 84 80 77 72 74 74 68 60 65 70 79 71 66 65 66 67 67 67 67
93 96 96 96 98 97 96 97 97 96 96 92 92 94 91 80 80 84 88 89 89 88 88 86 84 81 72 70 68 69 55 62 66 70 78 73 66 64 66 66 67 67 66
91 97 96 96 96 95 97 99 100 100 98 96 94 98 91 81 92 92 91 88 90 89 86 82 79 69 63 66 64 66 58 64 67 68 74 74 66 64 65 65 66 66 66
93 95 94 95 96 97 96 99 99 99 99 96 96 95 94 94 91 91 90 90 87 84 87 86 77 66 61 61 60 66 60 65 68 72 78 76 71 64 64 65 65 66 66
96 93 93 93 92 94 97 98 99 98 99 96 96 93 94 90 88 82 87 83 77 79 82 80 74 63 57 60 62 59 62 66 67 70 77 74 75 68 63 64 65 65 64
95 95 91 86 85 95 98 98 99 99 98 99 98 97 90 90 87 75 79 74 74 69 67 69 72 63 60 63 66 58 62 66 66 72 79 75 79 74 68 64 64 65 64
93 94 94 90 86 89 94 98 99 99 97 98 98 96 88 88 84 73 73 75 76 72 61 71 72 66 65 63 63 61 61 66 66 71 77 83 80 79 76 71 68 65 65
87 91 90 86 93 92 96 97 99 98 98 96 98 97 92 83 78 81 75 68 71 67 65 69 73 61 68 66 70 66 60 67 69 69 71 77 86 73 81 80 75 71 68
87 83 91 91 94 95 96 97 98 98 97 96 97 95 93 83 80 80 80 76 68 69 79 68 66 60 62 68 66 69 70 67 71 64 70 74 81 79 82 83 84 81 77
88 88 90 91 93 94 96 97 98 98 98 96 95 94 90 83 80 82 81 86 91 77 87 66 58 71 63 62 47 58 72 74 69 72 71 70 76 74 76 77 82 80 85
91 94 90 94 94 95 97 98 98 97 98 97 94 92 92 84 77 76 78 87 82 82 84 64 64 66 70 65 66 74 74 74 71 72 71 69 74 72 80 79 81 78 79
93 95 90 95 96 94 90 91 90 94 96 93 93 93 87 84 72 73 79 82 70 85 89 78 64 69 62 65 64 67 67 60 64 68 72 69 72 70 74 77 81 80 80
87 97 93 92 92 92 90 92 94 96 98 97 95 93 86 83 66 65 73 78 77 76 83 74 66 60 64 64 57 62 70 67 69 70 72 73 72 76 72 74 80 80 80
90 95 95 89 88 87 90 90 93 92 95 89 88 84 74 79 75 68 70 68 72 82 83 82 75 71 75 62 67 64 72 78 84 86 76 77 72 72 74 74 68 75 73
83 92 96 92 88 84 88 87 88 82 81 80 82 77 77 82 78 75 78 82 82 84 88 87 87 82 78 86 70 78 79 83 90 92 88 75 78 78 72 69 65 65 58
86 93 97 92 89 85 87 87 86 83 84 87 91 86 87 89 86 84 75 86 86 86 90 91 89 87 90 89 80 81 84 87 91 95 94 91 81 82 84 81 78 70 69